Wetterdaten: Mittwoch, 29.09.2010
Datum Zeit Temp. A. Feuchte A. Luftdruck Regen Wind Richtung Richtung Sonnenschein UV Solar Windben
29.09.2010 00:00 9,8 C 93 % 1018,4 hPa 0,0 mm 0,0 km/h (0 Bft) N 0 0 min 0 UV-I 0 W/m 0,0 km/h (0 Bft)
29.09.2010 00:10 9,7 C 93 % 1018,3 hPa 0,0 mm 0,0 km/h (0 Bft) N 0 0 min 0 UV-I 0 W/m 0,0 km/h (0 Bft)
29.09.2010 00:20 9,6 C 93 % 1018,4 hPa 0,0 mm 0,0 km/h (0 Bft) N 0 0 min 0 UV-I 0 W/m 0,0 km/h (0 Bft)
29.09.2010 00:30 9,4 C 93 % 1018,6 hPa 0,0 mm 0,0 km/h (0 Bft) N 0 0 min 0 UV-I 0 W/m 0,0 km/h (0 Bft)
29.09.2010 00:40 9,3 C 93 % 1018,6 hPa 0,0 mm 0,0 km/h (0 Bft) N 0 0 min 0 UV-I 0 W/m 0,0 km/h (0 Bft)
29.09.2010 00:50 9,3 C 93 % 1018,5 hPa 0,0 mm 0,0 km/h (0 Bft) N 0 0 min 0 UV-I 0 W/m 0,0 km/h (0 Bft)
29.09.2010 01:00 9,2 C 92 % 1018,7 hPa 0,0 mm 0,0 km/h (0 Bft) N 0 0 min 0 UV-I 0 W/m 0,0 km/h (0 Bft)
29.09.2010 01:10 9,1 C 93 % 1018,7 hPa 0,0 mm 0,0 km/h (0 Bft) N 0 0 min 0 UV-I 0 W/m 0,0 km/h (0 Bft)
29.09.2010 01:20 9,1 C 93 % 1018,6 hPa 0,0 mm 0,0 km/h (0 Bft) N 0 0 min 0 UV-I 0 W/m 0,0 km/h (0 Bft)
29.09.2010 01:30 8,9 C 93 % 1018,7 hPa 0,0 mm 0,0 km/h (0 Bft) N 0 0 min 0 UV-I 0 W/m 0,0 km/h (0 Bft)
29.09.2010 01:40 8,8 C 92 % 1018,7 hPa 0,0 mm 0,0 km/h (0 Bft) N 0 0 min 0 UV-I 0 W/m 0,0 km/h (0 Bft)
29.09.2010 01:50 8,6 C 92 % 1018,6 hPa 0,0 mm 0,0 km/h (0 Bft) N 0 0 min 0 UV-I 0 W/m 0,0 km/h (0 Bft)
29.09.2010 02:00 8,4 C 92 % 1018,6 hPa 0,0 mm 0,0 km/h (0 Bft) N 0 0 min 0 UV-I 0 W/m 0,0 km/h (0 Bft)
29.09.2010 02:10 8,3 C 92 % 1018,6 hPa 0,0 mm 0,0 km/h (0 Bft) N 0 0 min 0 UV-I 0 W/m 0,0 km/h (0 Bft)
29.09.2010 02:20 8,1 C 92 % 1018,7 hPa 0,0 mm 0,0 km/h (0 Bft) N 0 0 min 0 UV-I 0 W/m 0,0 km/h (0 Bft)
29.09.2010 02:30 7,8 C 92 % 1018,6 hPa 0,0 mm 0,0 km/h (0 Bft) N 0 0 min 0 UV-I 0 W/m 0,0 km/h (0 Bft)
29.09.2010 02:40 7,7 C 92 % 1018,6 hPa 0,0 mm 0,0 km/h (0 Bft) N 0 0 min 0 UV-I 0 W/m 0,0 km/h (0 Bft)
29.09.2010 02:50 7,4 C 92 % 1018,6 hPa 0,0 mm 0,0 km/h (0 Bft) N 0 0 min 0 UV-I 0 W/m 0,0 km/h (0 Bft)
29.09.2010 03:00 7,3 C 92 % 1018,6 hPa 0,0 mm 0,0 km/h (0 Bft) N-NO 22 0 min 0 UV-I 0 W/m 1,6 km/h (1 Bft)
29.09.2010 03:10 7,1 C 92 % 1018,6 hPa 0,0 mm 0,0 km/h (0 Bft) N-NO 22 0 min 0 UV-I 0 W/m 1,6 km/h (1 Bft)
29.09.2010 03:20 6,8 C 92 % 1018,7 hPa 0,0 mm 0,0 km/h (0 Bft) N-NO 22 0 min 0 UV-I 0 W/m 1,6 km/h (1 Bft)
29.09.2010 03:30 6,7 C 92 % 1018,7 hPa 0,0 mm 0,0 km/h (0 Bft) N-NO 22 0 min 0 UV-I 0 W/m 1,6 km/h (1 Bft)
29.09.2010 03:40 6,5 C 92 % 1018,8 hPa 0,0 mm 0,0 km/h (0 Bft) N-NO 22 0 min 0 UV-I 0 W/m 1,6 km/h (1 Bft)
29.09.2010 03:50 6,3 C 92 % 1018,8 hPa 0,0 mm 0,0 km/h (0 Bft) N 0 0 min 0 UV-I 0 W/m 0,0 km/h (0 Bft)
29.09.2010 04:00 6,2 C 92 % 1018,7 hPa 0,0 mm 0,0 km/h (0 Bft) N 0 0 min 0 UV-I 0 W/m 0,0 km/h (0 Bft)
29.09.2010 04:10 6,1 C 92 % 1018,7 hPa 0,0 mm 0,0 km/h (0 Bft) N 0 0 min 0 UV-I 0 W/m 0,0 km/h (0 Bft)
29.09.2010 04:20 5,9 C 92 % 1018,8 hPa 0,0 mm 0,0 km/h (0 Bft) N 0 0 min 0 UV-I 0 W/m 0,0 km/h (0 Bft)
29.09.2010 04:30 5,8 C 92 % 1018,8 hPa 0,0 mm 0,0 km/h (0 Bft) N 0 0 min 0 UV-I 0 W/m 0,0 km/h (0 Bft)
29.09.2010 04:40 5,6 C 92 % 1018,7 hPa 0,0 mm 0,0 km/h (0 Bft) N 0 0 min 0 UV-I 0 W/m 0,0 km/h (0 Bft)
29.09.2010 04:50 5,4 C 92 % 1018,8 hPa 0,0 mm 0,0 km/h (0 Bft) N 0 0 min 0 UV-I 0 W/m 0,0 km/h (0 Bft)
29.09.2010 05:00 5,3 C 92 % 1018,7 hPa 0,0 mm 0,0 km/h (0 Bft) N 0 0 min 0 UV-I 0 W/m 0,0 km/h (0 Bft)
29.09.2010 05:10 5,1 C 92 % 1018,9 hPa 0,0 mm 0,0 km/h (0 Bft) N 0 0 min 0 UV-I 0 W/m 0,0 km/h (0 Bft)
29.09.2010 05:20 4,9 C 92 % 1019,0 hPa 0,0 mm 0,0 km/h (0 Bft) N 0 0 min 0 UV-I 0 W/m 0,0 km/h (0 Bft)
29.09.2010 05:30 4,8 C 92 % 1019,0 hPa 0,0 mm 0,0 km/h (0 Bft) N 0 0 min 0 UV-I 0 W/m 0,0 km/h (0 Bft)
29.09.2010 05:40 4,6 C 92 % 1019,0 hPa 0,0 mm 0,0 km/h (0 Bft) N 0 0 min 0 UV-I 0 W/m 0,0 km/h (0 Bft)
29.09.2010 05:50 4,4 C 92 % 1019,1 hPa 0,0 mm 0,0 km/h (0 Bft) N 0 0 min 0 UV-I 0 W/m 0,0 km/h (0 Bft)
29.09.2010 06:00 4,3 C 92 % 1019,1 hPa 0,0 mm 0,0 km/h (0 Bft) N 0 0 min 0 UV-I 0 W/m 0,0 km/h (0 Bft)
29.09.2010 06:10 4,2 C 92 % 1019,2 hPa 0,0 mm 0,0 km/h (0 Bft) N 0 0 min 0 UV-I 0 W/m 0,0 km/h (0 Bft)
29.09.2010 06:20 4,1 C 92 % 1019,2 hPa 0,0 mm 0,0 km/h (0 Bft) N 0 0 min 0 UV-I 0 W/m 0,0 km/h (0 Bft)
29.09.2010 06:30 3,9 C 92 % 1019,1 hPa 0,0 mm 0,0 km/h (0 Bft) N 0 0 min 0 UV-I 0 W/m 0,0 km/h (0 Bft)
29.09.2010 06:40 3,9 C 92 % 1019,2 hPa 0,0 mm 0,0 km/h (0 Bft) N 0 0 min 0 UV-I 0 W/m 0,0 km/h (0 Bft)
29.09.2010 06:50 3,8 C 92 % 1019,2 hPa 0,0 mm 0,0 km/h (0 Bft) N 0 0 min 0 UV-I 0 W/m 0,0 km/h (0 Bft)
29.09.2010 07:00 3,7 C 92 % 1019,2 hPa 0,0 mm 0,0 km/h (0 Bft) N 0 0 min 0 UV-I 0 W/m 0,0 km/h (0 Bft)
29.09.2010 07:10 3,6 C 92 % 1019,3 hPa 0,0 mm 0,0 km/h (0 Bft) N 0 0 min 0 UV-I 0 W/m 0,0 km/h (0 Bft)
29.09.2010 07:20 3,6 C 92 % 1019,5 hPa 0,0 mm 0,0 km/h (0 Bft) N 0 0 min 0 UV-I 0 W/m 0,0 km/h (0 Bft)
29.09.2010 07:30 3,4 C 92 % 1019,5 hPa 0,0 mm 0,0 km/h (0 Bft) N 0 0 min 0 UV-I 5 W/m 0,0 km/h (0 Bft)
29.09.2010 07:40 3,3 C 92 % 1019,5 hPa 0,0 mm 0,0 km/h (0 Bft) N 0 0 min 0 UV-I 9 W/m 0,0 km/h (0 Bft)
29.09.2010 07:50 3,2 C 92 % 1019,6 hPa 0,0 mm 0,0 km/h (0 Bft) N 0 0 min 0 UV-I 16 W/m 0,0 km/h (0 Bft)
29.09.2010 08:00 3,2 C 92 % 1019,6 hPa 0,0 mm 0,0 km/h (0 Bft) N 0 0 min 0 UV-I 19 W/m 0,0 km/h (0 Bft)
29.09.2010 08:10 3,1 C 92 % 1019,7 hPa 0,0 mm 0,0 km/h (0 Bft) N 0 0 min 0 UV-I 42 W/m 0,0 km/h (0 Bft)
29.09.2010 08:20 3,1 C 92 % 1019,7 hPa 0,0 mm 0,0 km/h (0 Bft) N 0 10 min 0 UV-I 111 W/m 0,0 km/h (0 Bft)
29.09.2010 08:30 3,1 C 92 % 1019,8 hPa 0,0 mm 0,0 km/h (0 Bft) N 0 10 min 0 UV-I 137 W/m 0,0 km/h (0 Bft)
29.09.2010 08:40 3,2 C 93 % 1019,9 hPa 0,0 mm 0,0 km/h (0 Bft) N 0 10 min 0 UV-I 156 W/m 0,0 km/h (0 Bft)
29.09.2010 08:50 3,6 C 93 % 1019,8 hPa 0,0 mm 0,0 km/h (0 Bft) N 0 10 min 1 UV-I 183 W/m 0,0 km/h (0 Bft)
29.09.2010 09:00 4,3 C 94 % 1019,9 hPa 0,0 mm 0,0 km/h (0 Bft) N 0 10 min 1 UV-I 207 W/m 0,0 km/h (0 Bft)
29.09.2010 09:10 5,8 C 94 % 1019,9 hPa 0,0 mm 0,0 km/h (0 Bft) N 0 10 min 1 UV-I 227 W/m 0,0 km/h (0 Bft)
29.09.2010 09:20 6,4 C 94 % 1019,9 hPa 0,0 mm 0,0 km/h (0 Bft) N 0 10 min 1 UV-I 248 W/m 0,0 km/h (0 Bft)
29.09.2010 09:30 6,9 C 94 % 1019,9 hPa 0,0 mm 0,0 km/h (0 Bft) N-NO 22 10 min 1 UV-I 269 W/m 1,6 km/h (1 Bft)
29.09.2010 09:40 7,2 C 94 % 1019,9 hPa 0,0 mm 0,0 km/h (0 Bft) N 0 10 min 1 UV-I 302 W/m 0,0 km/h (0 Bft)
29.09.2010 09:50 7,5 C 93 % 1019,8 hPa 0,0 mm 0,0 km/h (0 Bft) N-NO 22 10 min 1 UV-I 323 W/m 1,6 km/h (1 Bft)
29.09.2010 10:00 7,8 C 93 % 1019,9 hPa 0,0 mm 0,0 km/h (0 Bft) N-NO 22 10 min 1 UV-I 343 W/m 1,6 km/h (1 Bft)
29.09.2010 10:10 8,2 C 92 % 1020,0 hPa 0,0 mm 0,0 km/h (0 Bft) N-NO 22 10 min 2 UV-I 371 W/m 1,6 km/h (1 Bft)
29.09.2010 10:20 8,5 C 91 % 1019,9 hPa 0,0 mm 0,0 km/h (0 Bft) N-NO 22 10 min 2 UV-I 387 W/m 1,6 km/h (1 Bft)
29.09.2010 10:30 8,8 C 91 % 1019,8 hPa 0,0 mm 0,0 km/h (0 Bft) N-NO 22 10 min 2 UV-I 438 W/m 4,8 km/h (1 Bft)
29.09.2010 10:40 9,2 C 90 % 1019,9 hPa 0,0 mm 1,6 km/h (1 Bft) O-NO 67 10 min 2 UV-I 441 W/m 6,4 km/h (2 Bft)
29.09.2010 10:50 9,3 C 90 % 1019,9 hPa 0,0 mm 1,6 km/h (1 Bft) N 360 10 min 2 UV-I 554 W/m 6,4 km/h (2 Bft)
29.09.2010 11:00 9,9 C 88 % 1019,9 hPa 0,0 mm 1,6 km/h (1 Bft) N-NO 22 10 min 2 UV-I 543 W/m 6,4 km/h (2 Bft)
29.09.2010 11:10 10,1 C 87 % 1020,0 hPa 0,0 mm 1,6 km/h (1 Bft) O-NO 67 10 min 2 UV-I 613 W/m 6,4 km/h (2 Bft)
29.09.2010 11:20 10,4 C 87 % 1020,0 hPa 0,0 mm 1,6 km/h (1 Bft) O-NO 67 10 min 3 UV-I 638 W/m 4,8 km/h (1 Bft)
29.09.2010 11:30 10,6 C 87 % 1020,1 hPa 0,0 mm 1,6 km/h (1 Bft) O-SO 112 0 min 2 UV-I 197 W/m 8,0 km/h (2 Bft)
29.09.2010 11:40 10,4 C 87 % 1020,1 hPa 0,0 mm 1,6 km/h (1 Bft) O-SO 112 0 min 1 UV-I 158 W/m 8,0 km/h (2 Bft)
29.09.2010 11:50 10,6 C 87 % 1020,3 hPa 0,0 mm 0,0 km/h (0 Bft) O-NO 67 0 min 2 UV-I 274 W/m 6,4 km/h (2 Bft)
29.09.2010 12:00 10,5 C 87 % 1020,1 hPa 0,0 mm 1,6 km/h (1 Bft) O 90 0 min 1 UV-I 121 W/m 4,8 km/h (1 Bft)
29.09.2010 12:10 10,3 C 85 % 1020,1 hPa 0,0 mm 1,6 km/h (1 Bft) O-SO 112 0 min 2 UV-I 171 W/m 8,0 km/h (2 Bft)
29.09.2010 12:20 10,7 C 83 % 1020,0 hPa 0,0 mm 0,0 km/h (0 Bft) O-SO 112 10 min 3 UV-I 826 W/m 4,8 km/h (1 Bft)
29.09.2010 12:30 12,1 C 77 % 1020,0 hPa 0,0 mm 1,6 km/h (1 Bft) O-SO 112 10 min 3 UV-I 830 W/m 9,7 km/h (2 Bft)
29.09.2010 12:40 11,9 C 79 % 1019,9 hPa 0,0 mm 3,2 km/h (1 Bft) O 90 10 min 2 UV-I 322 W/m 11,3 km/h (2 Bft)
29.09.2010 12:50 11,7 C 79 % 1019,9 hPa 0,0 mm 0,0 km/h (0 Bft) SO 135 10 min 2 UV-I 329 W/m 3,2 km/h (1 Bft)
29.09.2010 13:00 11,9 C 79 % 1020,0 hPa 0,0 mm 1,6 km/h (1 Bft) N-NO 22 10 min 4 UV-I 900 W/m 8,0 km/h (2 Bft)
29.09.2010 13:10 12,6 C 75 % 1020,0 hPa 0,0 mm 1,6 km/h (1 Bft) N-NO 22 10 min 4 UV-I 933 W/m 4,8 km/h (1 Bft)
29.09.2010 13:20 12,8 C 77 % 1020,0 hPa 0,0 mm 1,6 km/h (1 Bft) NO 45 10 min 3 UV-I 473 W/m 6,4 km/h (2 Bft)
29.09.2010 13:30 12,2 C 77 % 1019,9 hPa 0,0 mm 1,6 km/h (1 Bft) O-NO 67 0 min 1 UV-I 146 W/m 8,0 km/h (2 Bft)
29.09.2010 13:40 11,9 C 78 % 1019,9 hPa 0,0 mm 1,6 km/h (1 Bft) NO 45 0 min 1 UV-I 160 W/m 8,0 km/h (2 Bft)
29.09.2010 13:50 11,9 C 77 % 1019,8 hPa 0,0 mm 1,6 km/h (1 Bft) N-NO 22 0 min 1 UV-I 158 W/m 9,7 km/h (2 Bft)
29.09.2010 14:00 11,9 C 78 % 1019,8 hPa 0,0 mm 1,6 km/h (1 Bft) O-NO 67 0 min 1 UV-I 132 W/m 9,7 km/h (2 Bft)
29.09.2010 14:10 11,8 C 80 % 1019,9 hPa 0,0 mm 1,6 km/h (1 Bft) O 90 0 min 1 UV-I 139 W/m 8,0 km/h (2 Bft)
29.09.2010 14:20 11,8 C 80 % 1019,8 hPa 0,0 mm 1,6 km/h (1 Bft) O 90 0 min 1 UV-I 171 W/m 6,4 km/h (2 Bft)
29.09.2010 14:30 12,0 C 78 % 1019,8 hPa 0,0 mm 1,6 km/h (1 Bft) O 90 0 min 2 UV-I 186 W/m 8,0 km/h (2 Bft)
29.09.2010 14:40 12,2 C 78 % 1019,7 hPa 0,0 mm 1,6 km/h (1 Bft) O 90 0 min 2 UV-I 232 W/m 4,8 km/h (1 Bft)
29.09.2010 14:50 12,4 C 76 % 1019,6 hPa 0,0 mm 3,2 km/h (1 Bft) O 90 0 min 2 UV-I 262 W/m 11,3 km/h (2 Bft)
29.09.2010 15:00 12,5 C 76 % 1019,6 hPa 0,0 mm 1,6 km/h (1 Bft) O 90 10 min 2 UV-I 357 W/m 8,0 km/h (2 Bft)
29.09.2010 15:10 12,7 C 77 % 1019,6 hPa 0,0 mm 1,6 km/h (1 Bft) NO 45 0 min 2 UV-I 274 W/m 9,7 km/h (2 Bft)
29.09.2010 15:20 12,8 C 75 % 1019,6 hPa 0,0 mm 1,6 km/h (1 Bft) O-NO 67 0 min 2 UV-I 269 W/m 8,0 km/h (2 Bft)
29.09.2010 15:30 12,8 C 75 % 1019,5 hPa 0,0 mm 1,6 km/h (1 Bft) O-NO 67 0 min 2 UV-I 255 W/m 8,0 km/h (2 Bft)
29.09.2010 15:40 12,8 C 76 % 1019,3 hPa 0,0 mm 1,6 km/h (1 Bft) O 90 10 min 2 UV-I 267 W/m 9,7 km/h (2 Bft)
29.09.2010 15:50 12,8 C 76 % 1019,4 hPa 0,0 mm 3,2 km/h (1 Bft) O-NO 67 10 min 1 UV-I 251 W/m 9,7 km/h (2 Bft)
29.09.2010 16:00 12,9 C 75 % 1019,3 hPa 0,0 mm 3,2 km/h (1 Bft) O 90 10 min 1 UV-I 302 W/m 9,7 km/h (2 Bft)
29.09.2010 16:10 12,9 C 73 % 1019,3 hPa 0,0 mm 4,8 km/h (1 Bft) O 90 10 min 2 UV-I 330 W/m 11,3 km/h (2 Bft)
29.09.2010 16:20 13,1 C 74 % 1019,2 hPa 0,0 mm 1,6 km/h (1 Bft) O 90 10 min 2 UV-I 350 W/m 4,8 km/h (1 Bft)
29.09.2010 16:30 13,2 C 70 % 1019,1 hPa 0,0 mm 1,6 km/h (1 Bft) O-SO 112 10 min 2 UV-I 499 W/m 4,8 km/h (1 Bft)
29.09.2010 16:40 13,9 C 69 % 1019,1 hPa 0,0 mm 3,2 km/h (1 Bft) O-NO 67 10 min 1 UV-I 519 W/m 8,0 km/h (2 Bft)
29.09.2010 16:50 14,4 C 67 % 1019,1 hPa 0,0 mm 4,8 km/h (1 Bft) O 90 10 min 1 UV-I 478 W/m 9,7 km/h (2 Bft)
29.09.2010 17:00 13,8 C 69 % 1019,1 hPa 0,0 mm 1,6 km/h (1 Bft) O 90 10 min 1 UV-I 346 W/m 8,0 km/h (2 Bft)
29.09.2010 17:10 13,3 C 72 % 1019,1 hPa 0,0 mm 1,6 km/h (1 Bft) O 90 0 min 1 UV-I 102 W/m 8,0 km/h (2 Bft)
29.09.2010 17:20 12,6 C 74 % 1019,1 hPa 0,0 mm 1,6 km/h (1 Bft) O-NO 67 0 min 1 UV-I 76 W/m 4,8 km/h (1 Bft)
29.09.2010 17:30 12,4 C 75 % 1019,0 hPa 0,0 mm 1,6 km/h (1 Bft) O-SO 112 0 min 0 UV-I 63 W/m 6,4 km/h (2 Bft)
29.09.2010 17:40 12,2 C 75 % 1019,1 hPa 0,0 mm 1,6 km/h (1 Bft) O 90 0 min 0 UV-I 56 W/m 6,4 km/h (2 Bft)
29.09.2010 17:50 12,1 C 75 % 1019,1 hPa 0,0 mm 1,6 km/h (1 Bft) O-SO 112 0 min 0 UV-I 51 W/m 8,0 km/h (2 Bft)
29.09.2010 18:00 11,9 C 75 % 1019,1 hPa 0,0 mm 1,6 km/h (1 Bft) O 90 0 min 0 UV-I 46 W/m 4,8 km/h (1 Bft)
29.09.2010 18:10 11,9 C 75 % 1019,1 hPa 0,0 mm 1,6 km/h (1 Bft) O-SO 112 0 min 0 UV-I 46 W/m 6,4 km/h (2 Bft)
29.09.2010 18:20 11,7 C 76 % 1019,1 hPa 0,0 mm 1,6 km/h (1 Bft) O-SO 112 0 min 0 UV-I 46 W/m 6,4 km/h (2 Bft)
29.09.2010 18:30 11,5 C 77 % 1019,2 hPa 0,0 mm 1,6 km/h (1 Bft) O 90 0 min 0 UV-I 40 W/m 9,7 km/h (2 Bft)
29.09.2010 18:40 11,3 C 77 % 1019,3 hPa 0,0 mm 1,6 km/h (1 Bft) O-NO 67 0 min 0 UV-I 28 W/m 4,8 km/h (1 Bft)
29.09.2010 18:50 11,2 C 79 % 1019,3 hPa 0,0 mm 0,0 km/h (0 Bft) O-NO 67 0 min 0 UV-I 16 W/m 3,2 km/h (1 Bft)
29.09.2010 19:00 10,9 C 81 % 1019,4 hPa 0,0 mm 1,6 km/h (1 Bft) O-NO 67 0 min 0 UV-I 5 W/m 4,8 km/h (1 Bft)
29.09.2010 19:10 10,7 C 82 % 1019,3 hPa 0,0 mm 0,0 km/h (0 Bft) O-NO 67 0 min 0 UV-I 0 W/m 3,2 km/h (1 Bft)
29.09.2010 19:20 10,3 C 83 % 1019,3 hPa 0,0 mm 0,0 km/h (0 Bft) O-NO 67 0 min 0 UV-I 0 W/m 3,2 km/h (1 Bft)
29.09.2010 19:30 9,9 C 84 % 1019,3 hPa 0,0 mm 0,0 km/h (0 Bft) O-NO 67 0 min 0 UV-I 0 W/m 3,2 km/h (1 Bft)
29.09.2010 19:40 9,6 C 85 % 1019,5 hPa 0,0 mm 0,0 km/h (0 Bft) O-NO 67 0 min 0 UV-I 0 W/m 4,8 km/h (1 Bft)
29.09.2010 19:50 9,3 C 85 % 1019,5 hPa 0,0 mm 0,0 km/h (0 Bft) O-NO 67 0 min 0 UV-I 0 W/m 3,2 km/h (1 Bft)
29.09.2010 20:00 9,1 C 86 % 1019,5 hPa 0,0 mm 0,0 km/h (0 Bft) O 90 0 min 0 UV-I 0 W/m 4,8 km/h (1 Bft)
29.09.2010 20:10 8,9 C 86 % 1019,5 hPa 0,0 mm 0,3 km/h (0 Bft) O-NO 72 0 min 0 UV-I 0 W/m 3,2 km/h (1 Bft)
29.09.2010 20:20 8,8 C 86 % 1019,5 hPa 0,0 mm 0,4 km/h (0 Bft) O 101 0 min 0 UV-I 0 W/m 4,8 km/h (1 Bft)
29.09.2010 20:30 8,6 C 86 % 1019,5 hPa 0,0 mm 0,1 km/h (0 Bft) O 101 0 min 0 UV-I 0 W/m 3,2 km/h (1 Bft)
29.09.2010 20:40 8,4 C 87 % 1019,5 hPa 0,0 mm 0,1 km/h (0 Bft) O 101 0 min 0 UV-I 0 W/m 1,6 km/h (1 Bft)
29.09.2010 20:50 8,3 C 87 % 1019,6 hPa 0,0 mm 0,0 km/h (0 Bft) O 101 0 min 0 UV-I 0 W/m 1,6 km/h (1 Bft)
29.09.2010 21:00 8,1 C 87 % 1019,6 hPa 0,0 mm 0,0 km/h (0 Bft) O 101 0 min 0 UV-I 0 W/m 0,0 km/h (0 Bft)
29.09.2010 21:10 7,9 C 88 % 1019,7 hPa 0,0 mm 0,0 km/h (0 Bft) O 101 0 min 0 UV-I 0 W/m 1,6 km/h (1 Bft)
29.09.2010 21:20 7,7 C 88 % 1019,7 hPa 0,0 mm 0,0 km/h (0 Bft) O 101 0 min 0 UV-I 0 W/m 0,0 km/h (0 Bft)
29.09.2010 21:30 7,5 C 89 % 1019,5 hPa 0,0 mm 0,0 km/h (0 Bft) O 101 0 min 0 UV-I 0 W/m 1,6 km/h (1 Bft)
29.09.2010 21:40 7,3 C 89 % 1019,5 hPa 0,0 mm 0,0 km/h (0 Bft) O 101 0 min 0 UV-I 0 W/m 0,0 km/h (0 Bft)
29.09.2010 21:50 7,2 C 90 % 1019,5 hPa 0,0 mm 0,0 km/h (0 Bft) O 101 0 min 0 UV-I 0 W/m 0,0 km/h (0 Bft)
29.09.2010 22:00 7,2 C 90 % 1019,5 hPa 0,0 mm 0,0 km/h (0 Bft) O 101 0 min 0 UV-I 0 W/m 1,6 km/h (1 Bft)
29.09.2010 22:10 7,1 C 90 % 1019,5 hPa 0,0 mm 0,2 km/h (0 Bft) O 101 0 min 0 UV-I 0 W/m 3,2 km/h (1 Bft)
29.09.2010 22:20 6,9 C 90 % 1019,4 hPa 0,0 mm 0,0 km/h (0 Bft) O 101 0 min 0 UV-I 0 W/m 1,6 km/h (1 Bft)
29.09.2010 22:30 6,8 C 90 % 1019,4 hPa 0,0 mm 0,0 km/h (0 Bft) O 101 0 min 0 UV-I 0 W/m 1,6 km/h (1 Bft)
29.09.2010 22:40 6,6 C 90 % 1019,3 hPa 0,0 mm 0,0 km/h (0 Bft) O 101 0 min 0 UV-I 0 W/m 1,6 km/h (1 Bft)
29.09.2010 22:50 6,5 C 91 % 1019,3 hPa 0,0 mm 0,2 km/h (0 Bft) O 98 0 min 0 UV-I 0 W/m 3,2 km/h (1 Bft)
29.09.2010 23:00 6,4 C 91 % 1019,2 hPa 0,0 mm 0,2 km/h (0 Bft) O 98 0 min 0 UV-I 0 W/m 1,6 km/h (1 Bft)
29.09.2010 23:10 6,4 C 91 % 1019,2 hPa 0,0 mm 0,2 km/h (0 Bft) O 96 0 min 0 UV-I 0 W/m 3,2 km/h (1 Bft)
29.09.2010 23:20 6,4 C 91 % 1019,1 hPa 0,0 mm 0,2 km/h (0 Bft) O 96 0 min 0 UV-I 0 W/m 1,6 km/h (1 Bft)
29.09.2010 23:30 6,4 C 91 % 1019,2 hPa 0,0 mm 0,1 km/h (0 Bft) O 95 0 min 0 UV-I 0 W/m 3,2 km/h (1 Bft)
29.09.2010 23:40 6,3 C 91 % 1019,2 hPa 0,0 mm 0,3 km/h (0 Bft) O 94 0 min 0 UV-I 0 W/m 3,2 km/h (1 Bft)
29.09.2010 23:50 6,3 C 91 % 1019,1 hPa 0,0 mm 0,2 km/h (0 Bft) O-NO 76 0 min 0 UV-I 0 W/m 4,8 km/h (1 Bft)
_ Min-Zeit 08:00 16:50 00:10 - 00:00 - - - - - 00:00
Minimum _ 3,1 C 67 % 1018,3 hPa - 0,0 km/h (0 Bft) - - - - - 0,0 km/h (0 Bft)
_ Max-Zeit 16:50 09:00 11:50 00:00 16:10 - - 08:20 13:10 13:10 12:40
Maximum _ 14,5 C 94 % 1020,3 hPa 0,0 mm 4,8 km/h
O (1 Bft)
- - 10 min 4 UV-I 933 W/m 11,3 km/h
O (2 Bft)
Durchschnitt _ 8,6 C 86 % 1019,3 hPa #0,0 mm 0,6 km/h (0 Bft) O - #6:00 h 2 UV-I 268 W/m 3,2 km/h (1 Bft)